Regional Weather Roundup
Issued by NWS

Home | Current Version | Previous Version | Graphics & Text | Print | Product List | Glossary On
Versions: 1 2 3 4 5 6 7 8 9 10 11 12 13 14 15 16 17 18 19 20 21 22 23 24 25 26 27 28 29 30 31 32 33 34 35 36 37 38 39 40 41 42 43 44 45 46 47 48 49 50
000
ASUS43 KOAX 191202
RWRNE

WEATHER ROUNDUP FOR NEBRASKA
NATIONAL WEATHER SERVICE OMAHA NE
600 AM CST FRI DEC 19 2014

NOTES: SATELLITE DATA IS BEING USED TO AUGMENT CLOUD COVER ABOVE
       12000 FEET.
       "FAIR" INDICATES FEW OR NO CLOUDS BELOW 12,000 FEET WITH NO
       SIGNIFICANT WEATHER AND/OR OBSTRUCTIONS TO VISIBILITY.

  * THESE STATIONS DO NOT REPORT WEATHER SUCH AS RAIN...SNOW OR FOG.

NEZ001>004-019>022-054>056-191300-
NEBRASKA PANHANDLE

CITY           SKY/WX    TMP DP  RH WIND       PRES   REMARKS
SCOTTSBLUFF    CLEAR      7   4  87 CALM      30.06S
6HR MIN TEMP:   2; 6HR MAX TEMP:  11;

ALLIANCE       PTCLDY     5   2  87 W7        30.04R WCI  -7
6HR MIN TEMP:   1; 6HR MAX TEMP:  10;

CHADRON        CLEAR      5   2  87 SW10      30.03F WCI -10
6HR MIN TEMP:   5; 6HR MAX TEMP:  19;

KIMBALL        PTCLDY    15  12  87 W5        30.03S WCI   7
SIDNEY         CLEAR     15  11  83 NW9       30.06R WCI   3
6HR MIN TEMP:  14; 6HR MAX TEMP:  25;

$$

NEZ057>060-069>072-079>082-191300-
SOUTHWEST NEBRASKA

CITY           SKY/WX    TMP DP  RH WIND       PRES   REMARKS
NORTH PLATTE   PTCLDY    13   7  77 CALM      30.08S
6HR MIN TEMP:  13; 6HR MAX TEMP:  19;

IMPERIAL       CLEAR     14  10  84 NW6       30.08S WCI   5
6HR MIN TEMP:  13; 6HR MAX TEMP:  21;

MCCOOK         FOG       15  13  91 SW3       30.11S VSB 1/4
6HR MIN TEMP:  15; 6HR MAX TEMP:  28;

$$

NEZ005>010-023>029-035>040-094-191300-
NORTH CENTRAL NEBRASKA

CITY           SKY/WX    TMP DP  RH WIND       PRES   REMARKS
VALENTINE      PTCLDY    10   7  87 SW8       30.03F WCI  -2
6HR MIN TEMP:  10; 6HR MAX TEMP:  15; 6HR PCP: TRACE;

AINSWORTH      PTCLDY    15  13  92 SW5       30.04S WCI   8
BROKEN BOW     CLOUDY    25  23  92 SW9       30.09R FOG     WCI  15
6HR MIN TEMP:  25; 6HR MAX TEMP:  27;

$$

NEZ041-046>049-061>064-073>077-083>087-191300-
SOUTH CENTRAL NEBRASKA

CITY           SKY/WX    TMP DP  RH WIND       PRES   REMARKS
GRAND ISLAND   CLOUDY    30  27  88 SW9       30.15S WCI  22
6HR MIN TEMP:  29; 6HR MAX TEMP:  30;

AURORA         CLOUDY    31  29  92 SW6       30.15S WCI  26
HASTINGS       CLOUDY    31  27  85 SW5       30.13F WCI  26
6HR MIN TEMP:  29; 6HR MAX TEMP:  31;

HEBRON         CLOUDY    30  27  90 S3        30.19S FOG
KEARNEY *      CLOUDY    28  27  93 S8        30.12S WCI  20
$$

NEZ011>018-030>034-042>045-191300-
NORTHEAST NEBRASKA

CITY           SKY/WX    TMP DP  RH WIND       PRES   REMARKS
NORFOLK        CLOUDY    30  25  81 S13       30.15S WCI  20
6HR MIN TEMP:  30; 6HR MAX TEMP:  30;

ALBION         CLOUDY    29  26  88 S7        30.13S WCI  22
BLAIR          CLOUDY    31  29  92 S5        30.20S FOG     WCI  27
COLUMBUS *     CLOUDY    30  23  74 SW8       30.18S WCI  23
FREMONT        CLOUDY    32  31  95 S6        30.20S FOG     WCI  26
TEKAMAH        CLOUDY    31  29  92 SE6       30.21S FOG     WCI  25
6HR MIN TEMP:  31; 6HR MAX TEMP:  31;

$$

NEZ050>053-065>068-078-088>093-191300-
SOUTHEAST NEBRASKA

CITY           SKY/WX    TMP DP  RH WIND       PRES   REMARKS
LINCOLN        CLOUDY    31  28  89 S5        30.21S FOG     WCI  26
6HR MIN TEMP:  31; 6HR MAX TEMP:  31;

OMAHA EPPLEY   CLOUDY    31  28  89 S6        30.23S WCI  25
6HR MIN TEMP:  31; 6HR MAX TEMP:  31;

BEATRICE       CLOUDY    30  28  92 S3        30.20S
FALLS CITY     CLOUDY    29  26  89 SW8       30.24S WCI  21
6HR MIN TEMP:  29; 6HR MAX TEMP:  30;

NEBRASKA CITY  CLOUDY    30  30 100 S3        30.21F FOG
PLATTSMOUTH    CLOUDY    30  28  92 SE5       30.21S FOG     WCI  25
$$

NEZ044-045-051>053-067-191300-
OMAHA AREA

CITY           SKY/WX    TMP DP  RH WIND       PRES   REMARKS
OMAHA EPPLEY   CLOUDY    31  28  89 S6        30.23S WCI  25
6HR MIN TEMP:  31; 6HR MAX TEMP:  31;

BLAIR          CLOUDY    31  29  92 S5        30.20S FOG     WCI  27
FREMONT        CLOUDY    32  31  95 S6        30.20S FOG     WCI  26
PLATTSMOUTH    CLOUDY    30  28  92 SE5       30.21S FOG     WCI  25
WAHOO          CLOUDY    31  29  90 S3        30.20S FOG
$$


USA.gov is the U.S. government's official web portal to all federal, state and local government web resources and services.